Showing default

SOLRAD 7A, 730

Orbit data source: Space-Track

SOLRAD 7A, 730 is an American payload satellite in LEO that was launched on Sat, 11 Jan 1964 UTC via a THOR SLV-2A AGENA D launch vehicle from the Air Force Western Test Range (AFWTR). Payloads include a variety of satellites, spacecraft, and rockets equipped with specific instruments for various scientific and technological missions. These include communications satellites like Starlink; space stations such as the ISS; scientific satellites like the Hubble; Earth observation satellites from companies like Planet Labs, Umbra, and HawkEye 360; GPS; miniature CubeSats for education and research; and military/defense satellites.

Loading next visibility...
SOLRAD 7A details
Identifier
730, 1964-001D
Orbit
LEO
Last TLE update14 hours ago
Origin
Flag of USNRO/NRL (US)
ManufacturerNRL
MissionCivil Astronomy
Bus & MotorNRL 24", Unknown motor
Mass40 kg wet, 40 kg dry
Launch date (UTC)
1964-01-11 (61 years ago)
Launch vehicle
THOR SLV-2A AGENA D
Launch site
Air Force Western Test Range (AFWTR)
Object type
Payload
Rocket body
Debris
Shape & HBRSphere, 0.6 m
Radar Cross Section0.283 m², Medium (>0.1 m² and < 1m²)

Expand to show TLE details & history

TLE from 14 hours ago
0 SOLRAD 7A
1   730U 64001D   25018.13540221  .00000113  00000-0  12177-3 0  9991
2   730  69.9072 302.9378 0015288 323.8353 135.9745 13.95943903989341
Epoch: 2025-01-18T03:14Z
Definitive object data (Epoch: 2025-01-18T03:14:58.75Z)
Latitude67.77835°
Longitude-106.56119°
Altitude927.005 km
Speed7.391 km/s
True Right ascension03h 59m 53s
True Declination67° 39' 38"
Sunlit
Object was in full shadow at TLE epoch
Visualization TLE readout
Latitude-57.89157°
Longitude-9.44413°
Altitude927.498 km
Speed7.389 km/s
Apparent Right ascension08h 16m 59s
Apparent Declination-53° 04' 57"
Sunlit
Object is in daylight
Visualization observer readout
Local Sidereal Time18:34:55
Azimuth224.277° SW
Elevation-68.244°
Doppler factor1
Orbital elements
Apogee altitude917.063 km
Perigee altitude894.791 km
Semi-major axis7,284.064 km
Eccentricity0.0015288
Inclination69.9072°
RAAN302.9378°
Arg. of periapsis323.8353°
True anomaly136.09608°
Mean anomaly135.9745°
Eccentric anomaly136.03531°
Mean motion3.49126 °/min
BSTAR0.00012177
Orbital period103.11 mins
Loading maneuver chart data...
Loading historical data...
Loading historical data...
Loading historical data...
Loading historical data...
Loading historical data...
Loading historical data...
Loading historical data...
Other satellites on launch #1 in the year 1964 (1964-01-11 UTC)

SOLRAD 7A Visibility forecast

Observer location: undefined°, undefined

Span
Click to sort rows by Start time (UTC) header in descending order
Start Az.
Max El. time (UTC)
Max El. Az.
Max El.
End time (UTC)
End Az.
11 mins2025-01-18 20:04:51.863Z193.96° SSW2025-01-18 20:09:51.863Z139.463° SSE43.216°2025-01-18 20:15:51.863Z29.04° NE
6 mins2025-01-18 21:53:51.863Z279.227° WNW2025-01-18 21:56:51.863Z316.076° NNW18.516°2025-01-18 21:59:51.863Z349.682° N
10 mins2025-01-19 05:07:51.863Z353.918° N2025-01-19 05:11:51.863Z49.477° ENE33.948°2025-01-19 05:17:51.863Z129.43° SE
8 mins2025-01-19 06:53:51.863Z305.538° NW2025-01-19 06:57:51.863Z251.961° W25.947°2025-01-19 07:01:51.863Z203.29° SW
|